[Iaude] MPEC H59: 2024 AN6 [a=2.55,e=0.69,i=6.7,H=19.77]

mpec at cfa.harvard.edu mpec at cfa.harvard.edu
Mon Apr 22 10:10:17 EDT 2024


M.P.E.C. 2024-H59                                Issued 2024 April 22, 14:08 UT

     The Minor Planet Electronic Circulars contain information on unusual
         minor planets, routine data on comets and natural satellites,
         and occasional editorial announcements.  They are published
    on behalf of Division F of the International Astronomical Union by the
          Minor Planet Center, Smithsonian Astrophysical Observatory,
                          Cambridge, MA 02138, U.S.A.
			  
             Prepared using the Tamkin Foundation Computer Network

                              MPC at CFA.HARVARD.EDU
            URL https://www.minorplanetcenter.net/    ISSN 1523-6714

                                    2024 AN6                                    


                           Revision to MPEC 2024-B85                            

Additional Observations:
     K24A06N  C2020 09 13.52887001 00 50.167-04 49 35.29         23.37GVEH059F51
     K24A06N  C2020 09 13.54078001 00 49.203-04 49 41.35         23.39GVEH059F51
     K24A06N  C2020 09 14.46200200 59 38.340-04 57 19.86         23.35GVEH059F51
     K24A06N KC2020 09 18.48228800 54 22.465-05 30 01.74         23.18GVEH059F52
     K24A06N KC2020 09 21.43514100 50 26.870-05 53 07.01         23.08GVEH059F52
     K24A06N  C2020 10 10.38390700 26 20.685-07 49 46.96         22.94GVEH059F51
     K24A06N  C2020 10 10.39553400 26 19.832-07 49 50.49         23.28GVEH059F51
     K24A06N  C2020 10 15.48839800 20 47.380-08 09 24.55         23.47GVEH059F51

Observer details:
F51 Pan-STARRS 1, Haleakala.  Observers J. Herman, T. Lowe, P. Minguez, A.
    Schultz, I. Smith.  Measurers K. Chambers, T. de Boer, J. Fairlamb, H.
    Gao, M. Huber, C.-C. Lin, E. Magnier, Y. Ramanjooloo, R. Wainscoat, R.
    Weryk.  1.8-m Ritchey-Chretien + CCD.
F52 Pan-STARRS 2, Haleakala.  Observers J. Herman, T. Lowe, P. Minguez, A.
    Schultz, I. Smith.  Measurers K. Chambers, T. de Boer, J. Fairlamb, H.
    Gao, M. Huber, C.-C. Lin, E. Magnier, Y. Ramanjooloo, R. Wainscoat, R.
    Weryk.  1.8-m Ritchey-Chretien + CCD.

First and last observations above in comparison with prediction:
Residuals in seconds of arc (or zero decimals in degrees), reference and Delta-T
200913 F51    9-    6-    201015 F51   11-    6-    MPO793581   -0.28 days

Orbital elements:
2024 AN6                                                 Earth MOID = 0.0695 AU
Epoch 2024 Mar. 31.0 TT = JDT 2460400.5                 Veres                   
M   1.97638              (2000.0)            P               Q                  
n   0.24216640     Peri.  153.51284     -0.62287420     +0.77408305             
a   2.5491386      Node    77.74547     -0.73675640     -0.53173951             
e   0.6921992      Incl.    6.65437     -0.26309265     -0.34358191             
P   4.07           H   19.77          G   0.15           U   1                  
Residuals in seconds of arc
200913 F51  0.2+  0.1+    240114 V06  0.2-  0.3+    240119 033  0.5+  0.3+
200913 F51  0.2-  0.0     240114 V06  0.4-  0.0     240119 033  1.1+  0.1+
200914 F51  0.2-  0.1-    240114 V06  0.0   0.1+    240120 033  0.6-  0.4-
200918 F52  0.3-  0.2-    240114 V06  0.1+  0.3-    240120 033  0.9-  0.2-
200921 F52  0.2+  0.1+    240115 V06  0.0   0.2-    240120 033  2.6+  0.1+
201010 F51  0.1+  0.4+    240115 V06  0.3+  0.1+    240120 033  1.7+  0.2+
201010 F51  0.4-  0.1-    240115 V06  0.0   0.1+    240120 033  2.1+  0.5+
201015 F51  0.2-  0.1+    240115 V06  0.0   0.2-    240129 691  0.2+  0.4-
231124 F52  0.0   0.1+    240116 L01  0.2+  0.6+    240129 691  0.6+  0.1-
231124 F52  0.1+  0.1+    240116 L01  0.2-  0.1+    240131 I52  0.2+  0.5-
231217 F52  0.0   0.0     240116 L01  0.3-  0.1-    240131 I52  0.3-  0.4+
231217 F52  0.1+  0.1+    240116 L01  0.4+  0.4-    240418 W84  0.1-  0.1+
240113 G96  0.3+  0.4+    240116 L01  0.5-  0.5-    240418 W84  0.0   0.2+
240113 G96  0.4+  0.3-    240117 H21  0.1+  0.3+    240418 W84  0.0   0.2+
240113 G96  0.2+  0.4-    240117 H21  0.1-  0.0     240418 W84  0.1+  0.2+
240113 G96  0.1+  0.7-    240117 H21  0.1+  0.6+    240419 W84  0.1-  0.1+
240113 G96  0.2+  0.2+    240117 V06  0.2+  0.1+    240419 W84  0.4-  0.1-
240113 G96  0.1+  0.4+    240117 V06  0.1-  0.4-    240419 W84  0.0   0.3+
240113 G96  0.1+  0.1-    240117 V06  0.5-  0.3-    240419 W84  0.1+  0.3+

Ephemeris:
2024 AN6                 a,e,i = 2.55, 0.69, 7                   q = 0.7846
Date    TT    R. A. (2000) Decl.     Delta      r    Elong.  Phase     V
2024 03 23    20 53 27.5 -14 22 32   0.7668  0.7846    50.8    79.9    21.5
...
2024 04 07    21 58 13.0 -12 27 32   0.9382  0.8215    50.0    69.0    21.6
...
2024 04 15    22 27 34.7 -11 03 33   1.0236  0.8672    50.7    63.5    21.8
...
2024 04 21    22 47 34.5 -09 56 26   1.0826  0.9105    51.6    59.8    21.9
2024 04 22    22 50 45.0 -09 45 07   1.0920  0.9183    51.7    59.3    21.9
2024 04 23    22 53 53.0 -09 33 48   1.1011  0.9263    51.9    58.7    21.9
...
2024 04 29    23 11 48.6 -08 26 10   1.1531  0.9771    53.3    55.7    22.1
...
2024 05 07    23 33 31.8 -06 59 02   1.2134  1.0508    55.5    52.3    22.2
...
2024 05 22    00 08 13.1 -04 34 46   1.2975  1.2000    61.1    47.6    22.5

A. U. Tomatic                (C) Copyright 2024 MPC           M.P.E.C. 2024-H59





More information about the Iaude mailing list